User: anonymous   Login
Location: Unspecified
(0.0000°N, 0.0000°E)
Time: 10:59:12
(UTC+00:00)
Language:

STARLINK-32271 - Orbit

View from above orbital plane
View from above orbital plane
View from above satellite
View from above satellite

Ground track
Ground track

The orbit is defined by the following mean orbital elements,

1 60368U          26144.84694917 +.00000000 +00000-0 -25574-4 0 00009
2 60368  53.1604 316.1445 0001207  98.7986 261.3151 15.30189698    04
Epoch (UTC): 24 May 2026 20:19:36
Eccentricity: 0.0001207
inclination: 53.1604°
perigee height: 474 km
apogee height: 476 km
right ascension of ascending node: 316.1445°
argument of perigee: 98.7986°
revolutions per day: 15.30189698
mean anomaly at epoch: 261.3151°

The dashed part of the orbit path shows where the satellite is in the earth's shadow,  

DLR